7 * 24
多渠道服务支持
ONEWEB-0330是英国OneWeb星座中的一颗低轨宽带通信卫星,于2021年8月21日发射入轨。OneWeb项目由英国主导,旨在构建覆盖全球的低轨卫星互联网,为偏远地区、地面网络覆盖盲区提供高速宽带接入服务,弥补传统通信基础设施的不足,同时可在灾害等应急场景保障通信连通。 该卫星属于OneWeb第一代组网卫星,和整个星座共同为全球用户提供泛在互联服务,后续第二代OneWeb卫星还将增加导航定位功能,进一步拓展服务能力,ONEWEB-0330的成功入轨推动OneWeb星座完成了组网进度,助力实现全球覆盖的目标。
英国
(GB)
| 数据来源 | 国际轨道数据 |
| 星历时间: | 2026-09-11T13:18:16+0800 11小时前 查看轨道信息 |
| 半长轴: | 7571.856km |
| 偏心率: | 0.0001633 |
| 轨道倾角: | 87.920° |
| 近地点辐角 | 102.941° |
| 升交点赤经 | 348.795° |
| 平近点角 | 257.190° |
| 近地点: | 1192.482km |
| 远地点: | 1194.956km |
| 周期: | 109.286分钟 |
| 每日圈数: | 13.176476 |